TimeCDT,TemperatureF,Dew PointF,Humidity,Sea Level PressureIn,VisibilityMPH,Wind Direction,Wind SpeedMPH,Gust SpeedMPH,PrecipitationIn,Events,Conditions,WindDirDegrees,DateUTC
12:55 AM,19.8,12.6,74,30.37,10.0,West,4.6,-,N/A,,Clear,280,2013-04-03 05:55:00
1:55 AM,19.9,12.6,73,30.38,10.0,WNW,4.6,-,N/A,,Clear,290,2013-04-03 06:55:00
2:55 AM,19.0,11.8,74,30.38,10.0,Calm,Calm,-,N/A,,Clear,0,2013-04-03 07:55:00
3:55 AM,19.2,11.1,71,30.39,10.0,West,4.6,-,N/A,,Clear,270,2013-04-03 08:55:00
4:55 AM,15.8,12.6,87,30.40,10.0,WNW,3.5,-,N/A,,Clear,290,2013-04-03 09:55:00
5:55 AM,14.9,12.4,90,30.41,10.0,NW,3.5,-,N/A,,Clear,310,2013-04-03 10:55:00
6:55 AM,15.8,14.0,93,30.44,10.0,Calm,Calm,-,N/A,,Clear,0,2013-04-03 11:55:00
7:55 AM,21.2,15.8,80,30.47,10.0,Calm,Calm,-,N/A,,Clear,0,2013-04-03 12:55:00
8:55 AM,28.4,14.0,55,30.49,10.0,Calm,Calm,-,N/A,,Clear,0,2013-04-03 13:55:00
9:55 AM,33.8,14.0,44,30.48,10.0,Calm,Calm,-,N/A,,Clear,0,2013-04-03 14:55:00
10:55 AM,37.4,8.6,30,30.47,10.0,Calm,Calm,-,N/A,,Clear,0,2013-04-03 15:55:00
11:55 AM,39.2,6.8,26,30.43,10.0,Calm,Calm,-,N/A,,Clear,0,2013-04-03 16:55:00
12:55 PM,41.0,8.6,26,30.40,10.0,East,5.8,-,N/A,,Clear,100,2013-04-03 17:55:00
1:55 PM,46.4,10.4,23,30.35,10.0,South,9.2,-,N/A,,Clear,170,2013-04-03 18:55:00
2:55 PM,46.4,12.2,25,30.44,10.0,Variable,3.5,-,N/A,,Clear,0,2013-04-03 19:55:00
3:55 PM,44.6,10.4,25,30.36,10.0,SSE,8.1,-,N/A,,Partly Cloudy,150,2013-04-03 20:55:00
4:55 PM,44.6,14.0,29,30.33,10.0,South,8.1,-,N/A,,Partly Cloudy,170,2013-04-03 21:55:00
5:55 PM,44.6,12.2,27,30.31,10.0,SSW,11.5,-,N/A,,Partly Cloudy,200,2013-04-03 22:55:00
6:55 PM,42.8,14.0,31,30.30,10.0,South,6.9,-,N/A,,Partly Cloudy,180,2013-04-03 23:55:00
7:55 PM,39.2,15.8,39,30.28,10.0,South,8.1,-,N/A,,Partly Cloudy,190,2013-04-04 00:55:00
8:55 PM,37.4,15.8,41,30.28,10.0,South,4.6,-,N/A,,Partly Cloudy,170,2013-04-04 01:55:00
9:55 PM,35.6,17.6,48,30.27,10.0,SSE,3.5,-,N/A,,Partly Cloudy,160,2013-04-04 02:55:00
10:55 PM,33.8,17.6,52,30.26,10.0,Calm,Calm,-,N/A,,Partly Cloudy,0,2013-04-04 03:55:00
11:55 PM,33.8,17.6,52,30.23,10.0,SSW,8.1,-,N/A,,Partly Cloudy,200,2013-04-04 04:55:00